Showing default

APSTAR 6D, 45863

Orbit data source: Space-Track

APSTAR 6D, 45863 is a payload satellite owned by APT Shenzhen (CN) in GEO that was launched on Thu, 09 Jul 2020 UTC via a CHANG ZHENG 3B launch vehicle from the Xichang Space Center, China (XSC). Payload-class satellites include a variety of spacecraft equipped with specific instruments for various scientific and technological missions. These include communications satellites like Starlink; space stations such as the ISS; scientific satellites like the Hubble; Earth observation satellites from companies like Planet Labs, Umbra, and HawkEye 360; GPS; miniature CubeSats for education and research; and military/defense satellites.

Not visible in the next 10 days
Identifier
45863, 2020-045A
Orbit
GEO
Country
Flag of CNCN / PRC
Related business
Manufacturer
CAST
Mission
Operational Commercial Communications
Bus & Motor
DFH-4E, DFH-4 LAE
Mass
~5,000 kg wet, ~2,500 kg dry
Launch date (UTC)
2020-07-09 (5 years ago)
Launch vehicle
CHANG ZHENG 3B
Launch site
Xichang Space Center, China (XSC)
Object type
Payload
Rocket body
Debris
Shape & HBR
Box + 2 Pan, Unknown HBR
Radar Cross Section
34.063 m², Large (>1 m²)

Expand to show TLE details & history
Last TLE update: 13 hours ago

TLE from 13 hours ago
0 APSTAR 6D
1 45863U 20045A   25354.29252655 -.00000294  00000-0  00000-0 0  9998
2 45863   0.0508  99.4958 0001782 346.1395 242.8473  1.00269233 20068
Epoch: 2025-12-20T07:01Z
TLE epoch observation values (Epoch: 2025-12-20T07:01:14.293Z)
Latitude
-0.04377°
Longitude
134.0235°
Altitude
35,790.259 km
Speed
3.074 km/s
True Right ascension
21h 53m 49s
True Declination
0° 02' 37"
Sunlit
Object was in daylight at epoch
Visualization orbit readout
Latitude
Unknown
Longitude
Unknown
Altitude
Unknown
Speed
Unknown
Apparent Right ascension
Unknown
Apparent Declination
Unknown
Sunlit
N/A
Visualization observer readout
Local Sidereal Time
19:23:51
Azimuth
Unknown
Elevation
Unknown
Doppler factor
Unknown
Orbital elements
Apogee altitude
35,795.895 km
Perigee altitude
35,780.867 km
Semi-major axis
42,166.518 km
Eccentricity
0.00018
Inclination
0.0508°
RAAN
99.4958°
Arg. of periapsis
346.1395°
True anomaly
242.82913°
Mean anomaly
242.8473°
Eccentric anomaly
242.83822°
Mean motion
0.25066 °/min
Orbital period
1,436.19 mins
BSTAR
0
Loading maneuver chart data...
Computing Atmospheric mass density...
Loading historical data...
Loading historical data...
Loading historical data...
Loading historical data...
Loading historical data...
Loading historical data...
Loading historical data...
Other satellites on launch #45 in the year 2020 (2020-07-09 UTC)

Documentation

Showing up to 5 results
|